Location: Hannover
(52.3723°N, 9.7339°E)
Time: 02:51:47
(UTC+01:00)

Amateur Radio Satellites - All Passes

Search period start: 22 January 2018 02:21
Search period end: 23 January 2018 02:21
Location: Hannover, 52.3723°N, 9.7339°E

Satellite Date Start Highest point End Downlink Frequencies (MHz)
Time Altitude Azimuth
ISS 22 Jan 02:28:07 02:30:59 28° 209° (SSW) 02:33:50 437.550
AO-91 22 Jan 02:34:02 02:38:16 55° 289° (WNW) 02:42:57 145.960
AO-7 22 Jan 02:35:59 02:42:22 23° 88° (E) 02:48:41 .
POLYITAN 1 22 Jan 02:37:08 02:38:34 11° 308° (NW) 02:40:00 437.675
Gurwin Techsat 1B 22 Jan 02:50:01 02:55:21 72° 289° (WNW) 03:00:38 435.225
BUGSAT 1 22 Jan 02:55:43 02:59:15 26° 298° (WNW) 03:02:47 437.445
Oscar 19 22 Jan 02:57:13 03:02:13 50° 294° (WNW) 03:07:11 437.125/150
UKube-1 22 Jan 03:10:17 03:12:30 14° 272° (W) 03:14:44 .
ITUPSAT 1 22 Jan 03:10:30 03:15:14 65° 257° (WSW) 03:20:03 437.325
KKS-1 22 Jan 03:19:56 03:22:58 19° 57° (ENE) 03:26:02 437.445
MOZHAYETS 4 22 Jan 03:33:50 03:37:46 27° 267° (W) 03:41:43
STARS 22 Jan 03:34:45 03:36:27 12° 51° (NE) 03:38:10 437.465
O/OREOS (USA 219) 22 Jan 03:36:27 03:38:15 12° 330° (NNW) 03:40:02 437.305
CUBESAT XI-V 22 Jan 03:38:14 03:42:55 75° 256° (WSW) 03:47:37 437.345
DOVE 4 22 Jan 03:47:48 03:48:59 11° 85° (E) 03:50:10 437.250
BEESAT 22 Jan 03:50:23 03:54:34 30° 265° (W) 03:58:48 436.000
ITAMSAT 1 22 Jan 04:05:09 04:10:14 50° 100° (E) 04:15:16 435.822/435.867
AO-91 22 Jan 04:13:40 04:13:59 10° 307° (NW) 04:14:19 145.960
AO-7 22 Jan 04:27:56 04:36:23 84° 111° (ESE) 04:44:46 .
Gurwin Techsat 1B 22 Jan 04:31:17 04:34:26 16° 310° (NW) 04:37:36 435.225
Oscar 19 22 Jan 04:38:45 04:40:25 12° 314° (NW) 04:42:05 437.125/150
SO-50 22 Jan 04:41:42 04:44:10 15° 111° (ESE) 04:46:39 436.795
M-CUBED/EXP-1 PRIME 22 Jan 04:51:05 04:53:27 18° 98° (E) 04:55:46 437.505
ITUPSAT 1 22 Jan 04:53:52 04:54:02 10° 277° (W) 04:54:13 437.325
KKS-1 22 Jan 04:54:38 04:59:03 73° 256° (WSW) 05:03:30 437.445
STARS 22 Jan 05:07:40 05:11:59 67° 72° (ENE) 05:16:22 437.465
CUBESAT XI-V 22 Jan 05:19:32 05:21:06 11° 276° (W) 05:22:41 437.345
DOVE 4 22 Jan 05:23:02 05:27:22 79° 104° (ESE) 05:31:53 437.250
STRAND 1 22 Jan 05:23:15 05:27:10 23° 56° (ENE) 05:31:07 437.568
LilacSat-2 22 Jan 05:23:29 05:25:40 15° 89° (E) 05:27:50 437.200
XW-2C 22 Jan 05:24:30 05:26:31 14° 88° (E) 05:28:31 145.795 - 145.815
HO-68 22 Jan 05:25:56 05:27:40 11° 78° (ENE) 05:29:23 435.675
ITAMSAT 1 22 Jan 05:44:58 05:49:31 32° 300° (WNW) 05:54:03 435.822/435.867
CUTE-I 22 Jan 05:45:54 05:50:04 23° 90° (E) 05:54:12 437.470
FO-29 22 Jan 05:45:56 05:50:36 22° 55° (NE) 05:54:56 435.910
KAITUO 1B 22 Jan 05:55:36 05:58:26 20° 92° (E) 06:01:14 145.475/437.950
XW-2F 22 Jan 05:58:54 06:02:10 28° 95° (E) 06:05:24 145.980 - 146.000
NUDT-PHONESAT 22 Jan 06:04:29 06:07:31 23° 93° (E) 06:10:30 437.300
XW-2D 22 Jan 06:09:21 06:12:56 39° 98° (E) 06:16:28 145.860 - 145.880
SO-50 22 Jan 06:19:25 06:23:54 81° 132° (SE) 06:28:30 436.795
CUTE 1.7 + AOD 2 22 Jan 06:19:47 06:22:43 18° 89° (E) 06:25:36 437.475
AO-7 22 Jan 06:21:14 06:28:26 34° 313° (NW) 06:35:37 .
M-CUBED/EXP-1 PRIME 22 Jan 06:24:52 06:28:07 40° 298° (WNW) 06:31:14 437.505
XW-2B 22 Jan 06:26:55 06:30:39 58° 101° (E) 06:34:21 145.730 - 145.750
KKS-1 22 Jan 06:35:43 06:36:26 10° 275° (W) 06:37:08 437.445
CUBEBUG 2 22 Jan 06:42:26 06:46:14 23° 90° (E) 06:50:00 437.445
STARS 22 Jan 06:45:54 06:48:47 17° 270° (W) 06:51:43 437.465
UWE-3 22 Jan 06:46:13 06:48:58 15° 86° (E) 06:51:42 435.000/436.395/437.385
RS-15 22 Jan 06:53:47 07:03:10 27° 101° (E) 07:12:23 29.354- 29.394
LilacSat-2 22 Jan 06:56:34 07:00:21 62° 287° (WNW) 07:04:03 437.200
XW-2C 22 Jan 06:57:22 07:01:07 65° 287° (WNW) 07:04:50 145.795 - 145.815
STRAND 1 22 Jan 07:00:49 07:05:54 71° 256° (WSW) 07:11:03 437.568
DOVE 4 22 Jan 07:01:53 07:04:36 17° 302° (WNW) 07:07:22 437.250
UNISAT 6 22 Jan 07:05:51 07:06:39 10° 49° (NE) 07:07:28 437.425
ZACube-1 22 Jan 07:07:50 07:10:01 13° 85° (E) 07:12:11 437.345
HO-68 22 Jan 07:10:12 07:17:11 52° 100° (E) 07:24:08 435.675
AO-73 22 Jan 07:13:54 07:16:05 13° 85° (E) 07:18:16 145.935
AAUSAT CUBESAT 2 22 Jan 07:18:41 07:21:41 19° 91° (E) 07:24:41 437.432
CUTE-I 22 Jan 07:25:18 07:30:36 68° 290° (WNW) 07:35:53 437.470
FO-29 22 Jan 07:28:33 07:35:11 89° 247° (WSW) 07:41:02 435.910
KAITUO 1B 22 Jan 07:29:04 07:32:35 41° 291° (WNW) 07:36:03 145.475/437.950
XW-2F 22 Jan 07:32:57 07:36:17 30° 294° (WNW) 07:39:34 145.980 - 146.000
NUDT-PHONESAT 22 Jan 07:38:03 07:41:26 35° 292° (WNW) 07:44:47 437.300
SEEDS 22 Jan 07:39:52 07:44:01 64° 101° (ESE) 07:48:09 437.485
XW-2A 22 Jan 07:41:02 07:43:46 22° 94° (E) 07:46:28 145.665 - 145.685
XW-2D 22 Jan 07:43:54 07:46:54 23° 297° (WNW) 07:49:53 145.860 - 145.880
Oscar 11 22 Jan 07:45:27 07:48:10 16° 88° (E) 07:50:51 .
CUTE 1.7 + AOD 2 22 Jan 07:54:45 07:58:56 60° 289° (WNW) 08:03:04 437.475
SO-50 22 Jan 08:00:54 08:04:51 29° 334° (NNW) 08:08:53 436.795
XW-2B 22 Jan 08:01:57 08:04:27 17° 300° (WNW) 08:06:54 145.730 - 145.750
AO-7 22 Jan 08:14:44 08:18:46 15° 339° (NNW) 08:22:49 .
YUBILEINY 22 Jan 08:17:29 08:24:35 26° 54° (NE) 08:31:36 435.215
CUBEBUG 2 22 Jan 08:18:29 08:23:10 57° 290° (WNW) 08:27:50 437.445
UWE-3 22 Jan 08:21:19 08:26:03 85° 284° (WNW) 08:30:42 435.000/436.395/437.385
TIGRISAT 22 Jan 08:22:40 08:26:47 37° 65° (ENE) 08:31:01 435.000
PRISM 22 Jan 08:30:26 08:32:32 14° 55° (NE) 08:34:37 437.425
UNISAT 6 22 Jan 08:37:59 08:42:21 53° 69° (ENE) 08:46:51 437.425
O/OREOS (USA 219) 22 Jan 08:39:01 08:42:53 27° 46° (NE) 08:46:45 437.305
ZACube-1 22 Jan 08:42:23 08:47:00 87° 99° (E) 08:51:32 437.345
STRAND 1 22 Jan 08:44:06 08:46:02 12° 276° (W) 08:47:59 437.568
AO-73 22 Jan 08:48:25 08:53:01 88° 105° (ESE) 08:57:31 145.935
AAUSAT CUBESAT 2 22 Jan 08:53:26 08:57:27 53° 290° (WNW) 09:01:26 437.432
HO-68 22 Jan 08:58:11 09:04:52 44° 302° (WNW) 09:11:32 435.675
RS-15 22 Jan 09:01:30 09:13:47 77° 126° (SE) 09:25:48 29.354- 29.394
CUTE-I 22 Jan 09:06:45 09:09:46 15° 311° (NW) 09:12:45 437.470
XW-2A 22 Jan 09:13:30 09:16:30 30° 293° (WNW) 09:19:29 145.665 - 145.685
SEEDS 22 Jan 09:16:24 09:19:18 18° 301° (WNW) 09:22:10 437.485
FO-29 22 Jan 09:16:30 09:20:57 19° 272° (W) 09:25:06 435.910
DELFI C3 22 Jan 09:18:48 09:22:08 26° 94° (E) 09:25:27 145.870
Oscar 11 22 Jan 09:20:28 09:24:49 71° 287° (WNW) 09:29:06 .
CUTE 1.7 + AOD 2 22 Jan 09:33:26 09:33:54 10° 308° (NW) 09:34:22 437.475
Max Valier Satellite 22 Jan 09:42:43 09:46:01 30° 95° (E) 09:49:19 145.860
SO-50 22 Jan 09:43:29 09:46:41 18° 358° (N) 09:49:55 436.795
DUCHIFAT 1 22 Jan 09:46:28 09:47:55 12° 52° (NE) 09:49:23 145.980
EO-79 22 Jan 09:48:13 09:50:35 15° 55° (NE) 09:52:59 145.935-145.965
CUBEBUG 2 22 Jan 09:57:12 09:58:50 12° 309° (NW) 10:00:27 437.445
EO-88 22 Jan 09:58:30 10:01:45 29° 96° (E) 10:04:58 145.990 - 145.960
UWE-3 22 Jan 09:59:01 10:01:48 16° 305° (NW) 10:04:35 435.000/436.395/437.385
BEESAT 3 22 Jan 09:59:15 10:03:05 47° 125° (SE) 10:06:57 437.485
TIGRISAT 22 Jan 09:59:29 10:03:31 33° 265° (W) 10:07:40 435.000
AIST 2D 22 Jan 09:59:51 10:03:06 36° 69° (ENE) 10:06:22 435.315
PCSat 22 Jan 10:02:05 10:07:17 50° 119° (ESE) 10:12:31 145.827
PRISM 22 Jan 10:03:08 10:07:12 89° 254° (WSW) 10:11:18 437.425
AO-7 22 Jan 10:05:45 10:08:05 11° 7° (N) 10:10:25 .
YUBILEINY 22 Jan 10:14:01 10:22:50 85° 79° (E) 10:31:33 435.215
UNISAT 6 22 Jan 10:15:51 10:19:23 23° 269° (W) 10:23:00 437.425
O/OREOS (USA 219) 22 Jan 10:18:12 10:22:34 52° 248° (WSW) 10:26:55 437.305
ZACube-1 22 Jan 10:19:47 10:22:40 17° 304° (NW) 10:25:31 437.345
POLYITAN 1 22 Jan 10:22:01 10:25:37 27° 63° (ENE) 10:29:15 437.675
AO-73 22 Jan 10:25:48 10:28:37 16° 304° (NW) 10:31:24 145.935
NANOSAT C BR1 22 Jan 10:36:12 10:39:58 32° 64° (ENE) 10:43:45 145.865
BUGSAT 1 22 Jan 10:43:12 10:44:16 11° 52° (NE) 10:45:20 437.445
HO-68 22 Jan 10:47:20 10:50:54 15° 325° (NW) 10:54:27 435.675
BEESAT 2 22 Jan 10:50:20 10:54:12 45° 124° (SE) 10:58:04 435.950
QB50P2 22 Jan 10:51:11 10:55:19 53° 70° (ENE) 10:59:29 145.880/145.840
DELFI C3 22 Jan 10:53:20 10:56:58 36° 293° (WNW) 11:00:34 145.870
Oscar 11 22 Jan 10:58:26 11:00:10 12° 307° (NW) 11:01:54 .
Gurwin Techsat 1B 22 Jan 11:01:06 11:03:32 13° 47° (NE) 11:05:59 435.225
Oscar 19 22 Jan 11:03:54 11:07:04 16° 51° (NE) 11:10:13 437.125/150
LO-87 22 Jan 11:13:35 11:16:51 30° 96° (E) 11:20:05 145.935 - 145.965
RS-15 22 Jan 11:15:08 11:27:12 56° 334° (NNW) 11:38:53 29.354- 29.394
Max Valier Satellite 22 Jan 11:16:34 11:19:47 28° 295° (WNW) 11:22:59 145.860
DUCHIFAT 1 22 Jan 11:18:36 11:22:48 68° 72° (ENE) 11:27:01 145.980
EO-79 22 Jan 11:21:29 11:25:44 89° 243° (WSW) 11:30:02 145.935-145.965
SO-50 22 Jan 11:24:44 11:28:36 25° 22° (NNE) 11:32:31 436.795
AO-85 22 Jan 11:26:31 11:29:19 18° 113° (ESE) 11:32:15 145.980
SPROUT 22 Jan 11:28:56 11:29:47 10° 84° (E) 11:30:37 437.525
EO-88 22 Jan 11:32:12 11:35:20 27° 294° (WNW) 11:38:27 145.990 - 145.960
AIST 2D 22 Jan 11:33:40 11:36:23 21° 267° (W) 11:39:07 435.315
BEESAT 3 22 Jan 11:37:07 11:40:46 33° 326° (NW) 11:44:26 437.485
PRISM 22 Jan 11:41:45 11:43:06 11° 273° (W) 11:44:26 437.425
PCSat 22 Jan 11:45:40 11:50:49 42° 321° (NW) 11:56:00 145.827
ESTCUBE 1 22 Jan 11:46:04 11:50:28 52° 100° (E) 11:54:51 437.505/2401.250
AO-7 22 Jan 11:52:03 11:57:45 21° 34° (NNE) 12:03:27 .
POLYITAN 1 22 Jan 11:57:12 12:01:14 42° 262° (W) 12:05:20 437.675
AO-91 22 Jan 12:01:39 12:04:36 27° 64° (ENE) 12:07:43 145.960
NANOSAT C BR1 22 Jan 12:11:46 12:15:38 34° 264° (W) 12:19:32 145.865
YUBILEINY 22 Jan 12:11:46 12:18:38 27° 283° (WNW) 12:25:27 435.215
BUGSAT 1 22 Jan 12:14:44 12:18:47 65° 71° (ENE) 12:22:57 437.445
QB50P2 22 Jan 12:28:11 12:31:24 21° 269° (W) 12:34:40 145.880/145.840
BEESAT 2 22 Jan 12:28:16 12:32:01 35° 325° (NW) 12:35:47 435.950
Gurwin Techsat 1B 22 Jan 12:37:15 12:42:27 57° 68° (ENE) 12:47:41 435.225
Oscar 19 22 Jan 12:40:23 12:45:35 75° 71° (ENE) 12:50:48 437.125/150
LO-87 22 Jan 12:47:04 12:50:11 27° 294° (WNW) 12:53:17 145.935 - 145.965
DUCHIFAT 1 22 Jan 12:56:15 12:58:55 16° 271° (W) 13:01:36 145.980
EO-79 22 Jan 13:00:26 13:02:09 12° 274° (W) 13:03:53 145.935-145.965
SPROUT 22 Jan 13:02:06 13:06:26 77° 104° (ESE) 13:10:44 437.525
AO-85 22 Jan 13:05:03 13:09:08 75° 314° (NW) 13:13:37 145.980
SO-50 22 Jan 13:05:05 13:09:46 75° 44° (NE) 13:14:31 436.795
VELOX 1 22 Jan 13:15:50 13:20:11 58° 101° (E) 13:24:32 145.980
BEESAT 3 22 Jan 13:16:59 13:19:22 15° 349° (NNW) 13:21:45 437.485
ESTCUBE 1 22 Jan 13:23:22 13:27:01 25° 299° (WNW) 13:30:38 437.505/2401.250
DX 1 22 Jan 13:28:14 13:31:22 19° 91° (E) 13:34:29 434.975-435.025
RS-15 22 Jan 13:30:54 13:42:31 46° 7° (N) 13:53:36 29.354- 29.394
PCSat 22 Jan 13:31:44 13:35:38 19° 345° (NNW) 13:39:32 145.827
AO-91 22 Jan 13:38:12 13:41:07 26° 266° (W) 13:44:12 145.960
AO-7 22 Jan 13:40:47 13:48:51 55° 58° (ENE) 13:56:57 .
50 SAT 22 Jan 13:47:23 13:49:49 20° 95° (E) 13:52:13 437.505
ITAMSAT 1 22 Jan 13:50:50 13:55:04 26° 57° (ENE) 13:59:18 435.822/435.867
BUGSAT 1 22 Jan 13:51:57 13:54:35 16° 271° (W) 13:57:16 437.445
BEESAT 2 22 Jan 14:08:16 14:10:47 16° 348° (NNW) 14:13:20 435.950
M-CUBED/EXP-1 PRIME 22 Jan 14:08:57 14:10:47 13° 49° (NE) 14:12:34 437.505
Gurwin Techsat 1B 22 Jan 14:18:18 14:22:45 27° 268° (W) 14:27:14 435.225
Oscar 19 22 Jan 14:21:43 14:25:29 20° 271° (W) 14:29:15 437.125/150
SPROUT 22 Jan 14:39:00 14:41:48 17° 303° (WNW) 14:44:35 437.525
SO-50 22 Jan 14:46:11 14:49:49 22° 244° (WSW) 14:53:29 436.795
AO-85 22 Jan 14:46:48 14:50:17 24° 339° (NNW) 14:54:01 145.980
UKube-1 22 Jan 14:48:30 14:52:49 66° 103° (ESE) 14:57:05 .
VELOX 1 22 Jan 14:52:56 14:56:18 22° 301° (WNW) 14:59:39 145.980
BEESAT 3 22 Jan 14:55:55 14:58:21 15° 12° (NNE) 15:00:47 437.485
DOVE 4 22 Jan 14:57:59 15:01:08 21° 61° (ENE) 15:04:16 437.250
DX 1 22 Jan 15:03:38 15:07:55 60° 290° (WNW) 15:12:11 434.975-435.025
ITUPSAT 1 22 Jan 15:05:31 15:09:15 22° 91° (E) 15:12:55 437.325
PCSat 22 Jan 15:17:16 15:21:03 19° 12° (NNE) 15:24:50 145.827
50 SAT 22 Jan 15:18:48 15:21:33 29° 293° (WNW) 15:24:17 437.505
MOZHAYETS 4 22 Jan 15:21:52 15:26:23 48° 99° (E) 15:30:51
ITAMSAT 1 22 Jan 15:29:04 15:34:11 62° 258° (WSW) 15:39:21 435.822/435.867
CUBESAT XI-V 22 Jan 15:29:36 15:32:51 19° 89° (E) 15:36:03 437.345
AO-7 22 Jan 15:33:48 15:41:47 48° 260° (W) 15:49:52 .
CUTE-I 22 Jan 15:36:34 15:39:17 14° 48° (NE) 15:42:00 437.470
M-CUBED/EXP-1 PRIME 22 Jan 15:40:25 15:44:37 74° 67° (ENE) 15:48:32 437.505
BEESAT 22 Jan 15:43:39 15:48:16 44° 99° (E) 15:52:51 436.000
RS-15 22 Jan 15:45:07 15:57:09 72° 39° (NE) 16:08:29 29.354- 29.394
BEESAT 2 22 Jan 15:47:28 15:49:59 16° 12° (NNE) 15:52:30 435.950
HO-68 22 Jan 15:59:57 16:04:58 21° 44° (NE) 16:09:59 435.675
LilacSat-2 22 Jan 16:10:35 16:13:17 18° 61° (ENE) 16:15:59 437.200
XW-2C 22 Jan 16:10:57 16:13:30 17° 60° (ENE) 16:16:04 145.795 - 145.815
UKube-1 22 Jan 16:25:20 16:28:24 19° 302° (WNW) 16:31:29 .
AO-85 22 Jan 16:29:07 16:32:12 18° 4° (N) 16:35:27 145.980
BEESAT 3 22 Jan 16:33:14 16:36:55 36° 36° (NE) 16:40:33 437.485
DOVE 4 22 Jan 16:34:27 16:38:34 52° 260° (W) 16:42:39 437.250
KAITUO 1B 22 Jan 16:40:38 16:43:39 23° 64° (ENE) 16:46:40 145.475/437.950
KKS-1 22 Jan 16:40:50 16:43:18 14° 88° (E) 16:45:46 437.445
DX 1 22 Jan 16:42:08 16:43:15 11° 310° (NW) 16:44:21 434.975-435.025
ITUPSAT 1 22 Jan 16:42:41 16:47:28 62° 290° (WNW) 16:52:13 437.325
XW-2F 22 Jan 16:44:42 16:48:06 32° 67° (ENE) 16:51:30 145.980 - 146.000
NUDT-PHONESAT 22 Jan 16:48:31 16:51:39 26° 65° (ENE) 16:54:48 437.300
XW-2D 22 Jan 16:55:30 16:59:09 44° 70° (ENE) 17:02:49 145.860 - 145.880
MOZHAYETS 4 22 Jan 16:59:25 17:03:19 27° 299° (WNW) 17:07:11
PCSat 22 Jan 17:00:55 17:05:58 37° 36° (NE) 17:11:01 145.827
NO-84 22 Jan 17:02:04 17:04:22 20° 141° (SE) 17:06:36 435.350 FM
SEEDS 22 Jan 17:03:24 17:05:39 14° 56° (NE) 17:07:54 437.485
CUBESAT XI-V 22 Jan 17:06:05 17:10:42 67° 288° (WNW) 17:15:15 437.345
XW-2B 22 Jan 17:13:00 17:16:49 65° 72° (ENE) 17:20:36 145.730 - 145.750
CUTE-I 22 Jan 17:13:08 17:18:22 62° 69° (ENE) 17:23:37 437.470
ITAMSAT 1 22 Jan 17:13:49 17:14:43 10° 277° (W) 17:15:38 435.822/435.867
M-CUBED/EXP-1 PRIME 22 Jan 17:16:55 17:19:22 15° 263° (W) 17:21:44 437.505
CUTE 1.7 + AOD 2 22 Jan 17:17:29 17:21:05 27° 63° (ENE) 17:24:40 437.475
BEESAT 22 Jan 17:21:42 17:25:54 31° 298° (WNW) 17:30:05 436.000
BEESAT 2 22 Jan 17:25:01 17:28:46 35° 35° (NE) 17:32:29 435.950
AO-7 22 Jan 17:35:38 17:36:53 10° 283° (WNW) 17:38:08 .
LilacSat-2 22 Jan 17:43:25 17:47:13 55° 260° (W) 17:51:01 437.200
XW-2C 22 Jan 17:43:31 17:47:18 59° 259° (WSW) 17:51:06 145.795 - 145.815
HO-68 22 Jan 17:44:29 17:51:34 68° 66° (ENE) 17:58:41 435.675
CUBEBUG 2 22 Jan 17:45:41 17:49:44 35° 65° (ENE) 17:53:55 437.445
UWE-3 22 Jan 17:48:10 17:51:48 24° 60° (ENE) 17:55:30 435.000/436.395/437.385
RS-15 22 Jan 17:58:09 18:09:09 49° 246° (WSW) 18:19:37 29.354- 29.394
ZACube-1 22 Jan 18:08:23 18:11:48 22° 59° (ENE) 18:15:17 437.345
AO-85 22 Jan 18:09:55 18:14:01 29° 27° (NNE) 18:18:22 145.980
BEESAT 3 22 Jan 18:10:47 18:14:30 41° 236° (WSW) 18:18:09 437.485
AAUSAT CUBESAT 2 22 Jan 18:13:50 18:17:19 27° 64° (ENE) 18:20:50 437.432
KAITUO 1B 22 Jan 18:13:56 18:17:27 38° 262° (W) 18:21:00 145.475/437.950
AO-73 22 Jan 18:14:06 18:17:32 22° 59° (ENE) 18:21:00 145.935
KKS-1 22 Jan 18:15:58 18:20:27 83° 289° (WNW) 18:24:56 437.445
XW-2A 22 Jan 18:17:20 18:19:58 21° 64° (ENE) 18:22:36 145.665 - 145.685
XW-2F 22 Jan 18:18:54 18:22:13 28° 265° (W) 18:25:32 145.980 - 146.000
NUDT-PHONESAT 22 Jan 18:21:58 18:25:23 33° 263° (W) 18:28:48 437.300
ITUPSAT 1 22 Jan 18:22:17 18:24:23 13° 311° (NW) 18:26:30 437.325
STARS 22 Jan 18:27:09 18:31:32 57° 102° (ESE) 18:35:53 437.465
XW-2D 22 Jan 18:30:39 18:33:31 20° 268° (W) 18:36:25 145.860 - 145.880
SEEDS 22 Jan 18:36:30 18:40:43 90° 112° (ESE) 18:44:57 437.485
NO-84 22 Jan 18:38:16 18:41:15 89° 352° (N) 18:44:06 435.350 FM
PCSat 22 Jan 18:44:19 18:49:40 59° 239° (WSW) 18:54:59 145.827
CUBESAT XI-V 22 Jan 18:45:13 18:47:14 13° 308° (NW) 18:49:14 437.345
Oscar 11 22 Jan 18:45:16 18:48:52 26° 62° (ENE) 18:52:28 .
XW-2B 22 Jan 18:49:15 18:51:23 14° 272° (W) 18:53:31 145.730 - 145.750
CUTE 1.7 + AOD 2 22 Jan 18:52:43 18:56:45 41° 262° (W) 19:00:49 437.475
CUTE-I 22 Jan 18:54:32 18:58:50 25° 269° (W) 19:03:10 437.470
BEESAT 2 22 Jan 19:02:44 19:06:35 44° 236° (SW) 19:10:23 435.950
STRAND 1 22 Jan 19:05:39 19:09:57 26° 92° (E) 19:14:15 437.568
CUBEBUG 2 22 Jan 19:22:15 19:26:20 35° 265° (W) 19:30:35 437.445
UWE-3 22 Jan 19:23:31 19:27:55 55° 261° (W) 19:32:29 435.000/436.395/437.385
HO-68 22 Jan 19:33:37 19:39:51 32° 267° (W) 19:46:07 435.675
ZACube-1 22 Jan 19:43:13 19:47:40 63° 259° (WSW) 19:52:14 437.345
AAUSAT CUBESAT 2 22 Jan 19:48:47 19:52:40 38° 263° (W) 19:56:32 437.432
AO-73 22 Jan 19:48:53 19:53:22 62° 259° (W) 19:57:55 145.935
XW-2A 22 Jan 19:49:17 19:52:28 35° 262° (W) 19:55:40 145.665 - 145.685
AO-85 22 Jan 19:50:08 19:54:59 88° 230° (SW) 20:00:10 145.980
KKS-1 22 Jan 19:53:53 19:56:20 15° 307° (NW) 19:58:48 437.445
STARS 22 Jan 20:04:06 20:07:32 22° 301° (WNW) 20:10:57 437.465
DELFI C3 22 Jan 20:09:06 20:12:37 32° 66° (ENE) 20:16:07 145.870
RS-15 22 Jan 20:14:54 20:18:09 12° 272° (W) 20:21:22 29.354- 29.394
SEEDS 22 Jan 20:15:21 20:17:03 12° 274° (W) 20:18:44 437.485
NO-84 22 Jan 20:15:45 20:18:33 46° 359° (N) 20:21:18 435.350 FM
FO-29 22 Jan 20:16:36 20:21:38 44° 98° (E) 20:26:37 435.910
Oscar 11 22 Jan 20:20:36 20:24:48 46° 261° (W) 20:29:01 .
Max Valier Satellite 22 Jan 20:26:31 20:29:53 32° 67° (ENE) 20:33:15 145.860
nSIGHT-1 22 Jan 20:27:29 20:29:41 18° 145° (SE) 20:31:54 .
PCSat 22 Jan 20:30:22 20:31:57 11° 259° (WSW) 20:33:33 145.827
EO-88 22 Jan 20:41:09 20:44:24 31° 67° (ENE) 20:47:40 145.990 - 145.960
STRAND 1 22 Jan 20:44:26 20:49:28 56° 292° (WNW) 20:54:30 437.568
ISS 22 Jan 20:47:41 20:50:04 19° 145° (SE) 20:52:28 437.550
ESTCUBE 1 22 Jan 21:16:19 21:19:06 16° 55° (NE) 21:21:53 437.505/2401.250
YUBILEINY 22 Jan 21:28:40 21:34:49 22° 74° (ENE) 21:40:55 435.215
AO-85 22 Jan 21:31:27 21:34:55 19° 246° (WSW) 21:38:30 145.980
DELFI C3 22 Jan 21:43:56 21:47:21 29° 265° (W) 21:50:48 145.870
TIGRISAT 22 Jan 21:44:21 21:48:45 37° 96° (E) 21:53:06 435.000
NO-84 22 Jan 21:53:01 21:55:52 86° 17° (NNE) 21:58:43 435.350 FM
LO-87 22 Jan 21:54:40 21:57:48 30° 66° (ENE) 22:01:00 145.935 - 145.965
UNISAT 6 22 Jan 22:00:02 22:04:41 55° 100° (E) 22:09:17 437.425
Max Valier Satellite 22 Jan 22:00:31 22:03:44 26° 266° (W) 22:06:57 145.860
FO-29 22 Jan 22:02:03 22:06:41 32° 299° (WNW) 22:11:16 435.910
nSIGHT-1 22 Jan 22:02:17 22:05:24 55° 164° (SSE) 22:08:31 .
EO-88 22 Jan 22:14:55 22:18:02 26° 265° (W) 22:21:11 145.990 - 145.960
ISS 22 Jan 22:22:53 22:26:07 58° 164° (SSE) 22:29:20 437.550
STRAND 1 22 Jan 22:25:31 22:27:38 13° 313° (NW) 22:29:46 437.568
SPROUT 22 Jan 22:26:23 22:29:18 18° 58° (ENE) 22:32:14 437.525
VELOX 1 22 Jan 22:43:53 22:46:44 17° 56° (NE) 22:49:36 145.980
ESTCUBE 1 22 Jan 22:50:46 22:55:18 88° 257° (WSW) 22:59:51 437.505/2401.250
AIST 2D 22 Jan 22:52:04 22:54:43 20° 92° (E) 22:57:21 435.315
EO-79 22 Jan 23:02:46 23:03:36 10° 85° (E) 23:04:25 145.935-145.965
PRISM 22 Jan 23:13:30 23:17:34 65° 103° (ESE) 23:21:38 437.425
TIGRISAT 22 Jan 23:21:06 23:25:23 35° 295° (WNW) 23:29:39 435.000
YUBILEINY 22 Jan 23:21:25 23:30:14 80° 97° (E) 23:39:03 435.215
LO-87 22 Jan 23:28:08 23:31:12 26° 265° (W) 23:34:18 145.935 - 145.965
NO-84 22 Jan 23:30:33 23:32:42 20° 220° (SW) 23:34:54 435.350 FM
POLYITAN 1 22 Jan 23:36:14 23:39:37 22° 92° (E) 23:42:57 437.675
UNISAT 6 22 Jan 23:37:15 23:41:06 25° 299° (WNW) 23:44:55 437.425
nSIGHT-1 22 Jan 23:38:18 23:41:28 79° 185° (S) 23:44:39 .
NANOSAT C BR1 22 Jan 23:49:52 23:53:28 26° 93° (E) 23:57:03 145.865
ISS 22 Jan 23:59:14 00:02:31 79° 184° (S) 00:05:47 437.550
SPROUT 23 Jan 00:00:29 00:04:44 69° 258° (WSW) 00:09:01 437.525
QB50P2 23 Jan 00:05:40 00:09:48 44° 99° (E) 00:13:53 145.880/145.840
UKube-1 23 Jan 00:13:55 00:16:52 18° 57° (ENE) 00:19:49 .
50 SAT 23 Jan 00:17:19 00:19:25 17° 63° (ENE) 00:21:31 437.505
VELOX 1 23 Jan 00:18:16 00:22:40 79° 256° (WSW) 00:27:04 145.980
AIST 2D 23 Jan 00:24:47 00:28:01 36° 291° (WNW) 00:31:13 435.315
DX 1 23 Jan 00:28:44 00:32:38 34° 65° (ENE) 00:36:35 434.975-435.025
ESTCUBE 1 23 Jan 00:30:38 00:32:48 13° 274° (W) 00:34:56 437.505/2401.250
DUCHIFAT 1 23 Jan 00:32:05 00:36:17 55° 100° (E) 00:40:29 145.980
EO-79 23 Jan 00:35:47 00:40:06 77° 104° (ESE) 00:44:23 145.935-145.965
O/OREOS (USA 219) 23 Jan 00:35:50 00:40:15 57° 113° (ESE) 00:44:40 437.305
ITUPSAT 1 23 Jan 00:44:58 00:45:13 10° 46° (NE) 00:45:27 437.325
Oscar 19 23 Jan 00:47:05 00:50:26 17° 87° (E) 00:53:46 437.125/150
Gurwin Techsat 1B 23 Jan 00:48:53 00:51:41 14° 85° (E) 00:54:28 435.225
PRISM 23 Jan 00:49:40 00:52:26 18° 302° (WNW) 00:55:11 437.425
MOZHAYETS 4 23 Jan 00:54:13 00:57:05 16° 54° (NE) 00:59:56
POLYITAN 1 23 Jan 01:11:28 01:15:40 51° 291° (WNW) 01:19:48 437.675
nSIGHT-1 23 Jan 01:14:28 01:17:29 39° 203° (SSW) 01:20:28 .
BEESAT 23 Jan 01:19:46 01:23:00 18° 54° (NE) 01:26:15 436.000
AO-91 23 Jan 01:19:54 01:23:58 34° 97° (E) 01:28:23 145.960
YUBILEINY 23 Jan 01:20:24 01:28:04 32° 302° (WNW) 01:35:44 435.215
NANOSAT C BR1 23 Jan 01:25:16 01:29:20 42° 292° (WNW) 01:33:21 145.865
BUGSAT 1 23 Jan 01:25:39 01:29:49 49° 100° (E) 01:33:57 437.445
ISS 23 Jan 01:35:44 01:38:49 39° 204° (SSW) 01:41:54 437.550
QB50P2 23 Jan 01:41:49 01:45:24 26° 298° (WNW) 01:48:58 145.880/145.840
50 SAT 23 Jan 01:48:00 01:50:53 36° 261° (W) 01:53:49 437.505
UKube-1 23 Jan 01:48:08 01:52:25 71° 257° (WSW) 01:56:44 .
VELOX 1 23 Jan 01:58:37 01:59:52 11° 275° (W) 02:01:07 145.980
DX 1 23 Jan 02:04:56 02:08:50 33° 263° (W) 02:12:47 434.975-435.025
DUCHIFAT 1 23 Jan 02:08:22 02:11:38 22° 300° (WNW) 02:14:53 145.980
EO-79 23 Jan 02:12:35 02:15:21 17° 303° (WNW) 02:18:06 145.935-145.965
